Location: Shepherdstown, WV
(39.4326°N, 77.8042°W)
Time: 22:59:20
(UTC-04:00)

Vanguard 1 - Pass Details

Date: 01 August 2021
Orbit: 652 x 3831 km, 34.3° (Epoch: 17 September)

Event Time Altitude Azimuth Distance (km) Brightness Sun altitude
Rises 13:31:27 0° 261° (W) 3,216 12.8 68.2°
Reaches altitude 10° 13:33:29 10° 257° (WSW) 2,451 12.4 68.1°
Maximum altitude 13:39:02 59° 178° (S) 1,292 13.0 67.9°
Drops below altitude 10° 13:48:40 10° 102° (ESE) 4,160 13.4 67.4°
Sets 13:53:11 0° 100° (E) 5,687 13.9 67.0°
